Location: Mannheim
(49.4880°N, 8.4650°E)
Time: 19:36:50
(UTC+01:00)

ISS - Pass Details

Date: 22 September 2018
Orbit: 401 x 409 km, 51.6° (Epoch: 18 November)

Event Time Altitude Azimuth Distance (km) Brightness Sun altitude
Rises 21:45:09 0° 234° (SW) 2,339 0.4 -22.7°
Reaches altitude 10° 21:47:16 10° 229° (SW) 1,479 -0.8 -23.0°
Enters shadow 21:47:51 14° 226° (SW) 1,251 -1.2 -23.1°
